Location: Kalberh�ni
(46.4610°N, 7.2453°E)
Time: 08:21:40
(UTC+00:00)

deb Kosmos-2227 - Pass Details

Date: 10 August 2022
Orbit: 774 x 865 km, 70.9° (Epoch: 26 September)

Event Time Altitude Azimuth Distance (km) Brightness Sun altitude
Rises 21:41:22 0° 342° (NNW) 3,316 ? -23.0°
Reaches altitude 10° 21:46:04 10° 19° (NNE) 2,407 ? -23.4°
Maximum altitude 21:47:26 11° 33° (NNE) 2,354 ? -23.5°
Drops below altitude 10° 21:48:49 10° 48° (NE) 2,421 ? -23.6°
Enters shadow 21:52:16 - 77° (ENE) 3,031 ? -23.9°
